Tracking 28052 objects as of 22-Sep-2023
HD Live streaming from Space Station
objects crossing your sky now

STARLINK-3801

Track STARLINK-3801 now!
10-day predictions
STARLINK-3801 is classified as:


NORAD ID: 52356
Int'l Code: 2022-045AB
Perigee: 545.8 km
Apogee: 548.0 km
Inclination: 53.2 °
Period: 95.4 minutes
Semi major axis: 6917 km
RCS: Unknown
Launch date: April 29, 2022
Source: United States (US)
Launch site: AIR FORCE EASTERN TEST RANGE (AFETR)
Your satellite tracking list
Your tracking list is empty




NASA's NSSDC Master Catalog

Two Line Element Set (TLE):
1 52356U 22045AB  23264.74027932  .00000860  00000-0  72148-4 0  9995
2 52356  53.2160 279.1825 0001568 106.7993 253.3171 15.08839455 79926
Source of the keplerian elements: AFSPC